Date,TemperatureHighF,TemperatureAvgF,TemperatureLowF,DewpointHighF,DewpointAvgF,DewpointLowF,HumidityHigh,HumidityAvg,HumidityLow,PressureMaxIn,PressureMinIn,WindSpeedMaxMPH,WindSpeedAvgMPH,GustSpeedMaxMPH,PrecipitationSumIn
2013-4-1,62,43,25,30,26,22,92,58,26,0.00,40.00,9,4,16,0.00
2013-4-2,62,44,28,33,28,21,83,55,30,0.00,40.00,9,3,19,0.00
2013-4-3,59,45,29,38,29,24,88,57,29,0.00,40.00,12,5,21,0.00
2013-4-4,60,46,32,41,32,25,88,61,26,0.00,40.00,15,4,25,0.02
2013-4-5,53,43,36,41,33,24,94,69,36,0.00,40.00,14,7,25,0.02
2013-4-6,47,40,33,36,31,26,86,68,49,0.00,40.00,10,7,28,0.01
2013-4-7,47,36,30,34,29,26,91,77,59,0.00,40.00,14,5,21,0.02
2013-4-8,32,26,16,29,17,8,96,69,50,0.00,40.00,13,8,22,0.10
2013-4-9,46,26,10,14,10,5,81,56,26,0.00,40.00,6,4,14,0.02
2013-4-10,54,40,23,38,26,14,86,60,46,0.00,40.00,13,7,21,0.02
2013-4-11,45,38,32,34,24,19,88,59,38,0.00,40.00,13,7,21,0.02
2013-4-12,53,39,26,21,16,6,70,44,16,0.00,40.00,16,5,27,0.01
2013-4-13,43,34,26,32,20,9,88,57,33,0.00,40.00,17,12,31,0.01
2013-4-14,37,28,22,25,20,15,91,74,50,0.00,40.00,8,4,18,0.02
2013-4-15,31,22,11,15,9,5,81,60,37,0.00,40.00,11,6,19,0.02
2013-4-16,31,21,11,14,8,4,77,59,34,0.00,40.00,11,6,21,0.02
2013-4-17,41,24,8,12,4,-2,75,48,18,0.00,40.00,8,4,16,0.00
2013-4-18,47,31,16,20,13,4,69,50,33,0.00,40.00,11,5,30,0.00
2013-4-19,48,40,34,37,28,20,82,62,44,0.00,40.00,13,7,21,0.01
2013-4-20,51,42,37,33,28,20,85,60,34,0.00,40.00,15,9,27,0.01
2013-4-21,47,35,19,32,25,16,90,67,36,0.00,40.00,15,8,24,0.00
2013-4-22,37,25,16,23,13,4,88,65,25,0.00,40.00,9,6,16,0.04
2013-4-23,42,29,14,19,13,8,79,54,30,0.00,40.00,8,3,24,0.03
2013-4-24,55,39,20,23,17,13,79,47,21,0.00,40.00,12,6,23,0.00
2013-4-25,60,45,28,23,19,14,68,39,22,0.00,40.00,14,6,22,0.00
2013-4-26,64,48,27,32,25,21,77,46,22,0.00,40.00,14,6,22,0.00
2013-4-27,65,54,41,32,25,17,64,35,16,0.00,40.00,20,11,36,0.00
2013-4-28,55,48,43,32,27,20,57,45,31,0.00,40.00,15,10,25,0.00
2013-4-29,47,40,30,36,26,18,87,58,40,0.00,40.00,17,11,34,0.05
2013-4-30,34,28,21,24,15,7,92,61,34,0.00,40.00,8,5,15,0.01